• In Hungary
  • List of Countries
  • For 7 days
  • Water Temperature
  • Satellite Maps
  • Weather Map
  • News
  • Weather Widgets
  • user-avatar
    Login

    Hourly Weather Denpasar

    Today, 20 August, Sunday

    Time Temperature Precipitation Wind Pressure Humidity
    00:00 +26°C° 0.1 mm 4 mps 756 mmHg 90%
    01:00 +26°C° 0.1 mm 4 mps 756 mmHg 90%
    02:00 +26°C° 0 mm 3 mps 756 mmHg 91%
    03:00 +26°C° 0.1 mm 3 mps 756 mmHg 91%
    04:00 +26°C° 0.1 mm 4 mps 756 mmHg 91%
    05:00 +26°C° 0.1 mm 4 mps 756 mmHg 91%
    06:00 +26°C° 0.1 mm 4 mps 756 mmHg 89%
    07:00 +27°C° 0.1 mm 4 mps 756 mmHg 87%
    08:00 +27°C° 0 mm 4 mps 757 mmHg 83%
    09:00 +28°C° 0.1 mm 4 mps 756 mmHg 78%
    10:00 +29°C° 0.1 mm 4 mps 756 mmHg 73%
    11:00 +30°C° 0.1 mm 5 mps 756 mmHg 68%
    12:00 +30°C° 0.1 mm 5 mps 756 mmHg 68%
    13:00 +30°C° 0.1 mm 5 mps 755 mmHg 68%
    14:00 +32°C° 0 mm 4 mps 755 mmHg 67%
    15:00 +30°C° 0 mm 4 mps 754 mmHg 71%
    16:00 +29°C° 0 mm 4 mps 754 mmHg 76%
    17:00 +28°C° 0 mm 5 mps 754 mmHg 81%
    18:00 +27°C° 0.1 mm 5 mps 754 mmHg 84%
    19:00 +27°C° 0.1 mm 5 mps 754 mmHg 87%
    20:00 +26°C° 0.1 mm 5 mps 754 mmHg 90%
    21:00 +26°C° 0.1 mm 5 mps 755 mmHg 90%
    22:00 +26°C° 0.1 mm 5 mps 755 mmHg 90%
    23:00 +26°C° 0.1 mm 5 mps 755 mmHg 90%

    Tomorrow, 21 August, Monday

    Time Temperature Precipitation Wind Pressure Humidity
    00:00 +26°C° 0.1 mm 4 mps 755 mmHg 91%
    01:00 +26°C° 0.1 mm 4 mps 755 mmHg 91%
    02:00 +26°C° 0.1 mm 4 mps 755 mmHg 91%
    03:00 +26°C° 0.1 mm 4 mps 754 mmHg 91%
    04:00 +26°C° 0.1 mm 4 mps 754 mmHg 91%
    05:00 +26°C° 0.1 mm 3 mps 754 mmHg 91%
    06:00 +26°C° 0.1 mm 3 mps 755 mmHg 89%
    07:00 +27°C° 0.1 mm 3 mps 755 mmHg 86%
    08:00 +27°C° 0.1 mm 3 mps 755 mmHg 83%
    09:00 +29°C° 0.1 mm 3 mps 755 mmHg 75%
    10:00 +30°C° 0.1 mm 4 mps 756 mmHg 68%
    11:00 +33°C° 0.1 mm 4 mps 756 mmHg 60%
    12:00 +33°C° 0 mm 4 mps 755 mmHg 59%
    13:00 +33°C° 0 mm 4 mps 755 mmHg 58%
    14:00 +33°C° 0 mm 4 mps 754 mmHg 58%
    15:00 +32°C° 0 mm 4 mps 754 mmHg 63%
    16:00 +30°C° 0 mm 4 mps 754 mmHg 68%
    17:00 +29°C° 0 mm 4 mps 753 mmHg 73%
    18:00 +28°C° 0 mm 4 mps 754 mmHg 78%
    19:00 +27°C° 0 mm 4 mps 754 mmHg 83%
    20:00 +27°C° 0 mm 4 mps 754 mmHg 88%
    21:00 +26°C° 0 mm 4 mps 755 mmHg 88%
    22:00 +26°C° 0 mm 4 mps 755 mmHg 88%
    23:00 +26°C° 0 mm 4 mps 755 mmHg 88%

    Day after tomorrow, 22 August, Tuesday

    Time Temperature Precipitation Wind Pressure Humidity
    00:00 +26°C° 0.1 mm 4 mps 755 mmHg 88%
    01:00 +26°C° 0.1 mm 4 mps 755 mmHg 88%
    02:00 +26°C° 0.1 mm 4 mps 755 mmHg 89%
    03:00 +26°C° 0.1 mm 4 mps 754 mmHg 90%
    04:00 +26°C° 0.1 mm 4 mps 754 mmHg 91%
    05:00 +25°C° 0.1 mm 4 mps 754 mmHg 92%
    06:00 +26°C° 0 mm 4 mps 755 mmHg 88%
    07:00 +27°C° 0 mm 4 mps 755 mmHg 84%
    08:00 +28°C° 0 mm 3 mps 756 mmHg 79%
    09:00 +29°C° 0 mm 4 mps 756 mmHg 72%
    10:00 +32°C° 0 mm 4 mps 756 mmHg 64%
    11:00 +33°C° 0 mm 4 mps 756 mmHg 57%
    12:00 +33°C° 0 mm 4 mps 755 mmHg 57%
    13:00 +33°C° 0 mm 4 mps 755 mmHg 57%
    14:00 +33°C° 0 mm 4 mps 754 mmHg 57%
    15:00 +32°C° 0 mm 4 mps 754 mmHg 61%
    16:00 +30°C° 0 mm 4 mps 754 mmHg 65%
    17:00 +29°C° 0 mm 4 mps 754 mmHg 69%
    18:00 +28°C° 0 mm 4 mps 754 mmHg 75%
    19:00 +28°C° 0 mm 4 mps 755 mmHg 80%
    20:00 +27°C° 0 mm 4 mps 755 mmHg 86%
    21:00 +27°C° 0 mm 4 mps 756 mmHg 86%
    22:00 +26°C° 0 mm 4 mps 756 mmHg 87%
    23:00 +26°C° 0 mm 4 mps 756 mmHg 87%

    23 August, Wednesday

    Time Temperature Precipitation Wind Pressure Humidity
    00:00 +26°C° 0.1 mm 4 mps 756 mmHg 87%
    01:00 +26°C° 0.1 mm 4 mps 756 mmHg 88%
    02:00 +26°C° 0.1 mm 4 mps 755 mmHg 89%
    03:00 +26°C° 0.1 mm 4 mps 755 mmHg 89%
    04:00 +26°C° 0.1 mm 4 mps 755 mmHg 90%
    05:00 +26°C° 0.1 mm 4 mps 755 mmHg 90%
    06:00 +27°C° 0.1 mm 4 mps 755 mmHg 87%
    07:00 +27°C° 0.1 mm 4 mps 756 mmHg 84%
    08:00 +28°C° 0.1 mm 4 mps 756 mmHg 81%
    09:00 +29°C° 0 mm 4 mps 756 mmHg 72%
    10:00 +32°C° 0 mm 4 mps 756 mmHg 64%
    11:00 +33°C° 0 mm 4 mps 756 mmHg 56%
    12:00 +34°C° 0 mm 5 mps 756 mmHg 55%
    13:00 +34°C° 0 mm 5 mps 755 mmHg 53%
    14:00 +34°C° 0 mm 5 mps 754 mmHg 51%
    15:00 +33°C° 0 mm 5 mps 754 mmHg 56%
    16:00 +32°C° 0 mm 5 mps 754 mmHg 61%
    17:00 +30°C° 0 mm 5 mps 754 mmHg 67%
    18:00 +29°C° 0 mm 4 mps 754 mmHg 73%
    19:00 +28°C° 0 mm 4 mps 755 mmHg 80%
    20:00 +27°C° 0 mm 4 mps 756 mmHg 87%
    21:00 +27°C° 0.1 mm 4 mps 756 mmHg 88%
    22:00 +27°C° 0.1 mm 3 mps 756 mmHg 89%
    23:00 +27°C° 0.1 mm 3 mps 756 mmHg 90%

    24 August, Thursday

    Time Temperature Precipitation Wind Pressure Humidity
    00:00 +26°C° 0.1 mm 3 mps 756 mmHg 91%
    01:00 +26°C° 0.1 mm 3 mps 756 mmHg 93%
    02:00 +26°C° 0.1 mm 3 mps 755 mmHg 94%
    03:00 +26°C° 0.1 mm 3 mps 755 mmHg 94%
    04:00 +26°C° 0.1 mm 3 mps 755 mmHg 95%
    05:00 +26°C° 0.1 mm 3 mps 755 mmHg 95%
    06:00 +27°C° 0 mm 3 mps 755 mmHg 90%
    07:00 +27°C° 0 mm 3 mps 756 mmHg 86%
    08:00 +28°C° 0 mm 3 mps 756 mmHg 81%
    09:00 +30°C° 0 mm 4 mps 756 mmHg 72%
    10:00 +32°C° 0 mm 4 mps 756 mmHg 63%
    11:00 +34°C° 0 mm 4 mps 756 mmHg 55%
    12:00 +34°C° 0 mm 5 mps 755 mmHg 54%
    13:00 +34°C° 0 mm 5 mps 755 mmHg 53%
    14:00 +34°C° 0 mm 5 mps 754 mmHg 51%
    15:00 +33°C° 0 mm 5 mps 754 mmHg 56%
    16:00 +33°C° 0 mm 4 mps 754 mmHg 60%
    17:00 +32°C° 0 mm 4 mps 753 mmHg 64%
    18:00 +29°C° 0 mm 4 mps 754 mmHg 72%
    19:00 +28°C° 0 mm 4 mps 755 mmHg 80%
    20:00 +27°C° 0 mm 3 mps 755 mmHg 88%
    21:00 +26°C° 0 mm 3 mps 755 mmHg 88%
    22:00 +26°C° 0 mm 3 mps 755 mmHg 89%
    23:00 +26°C° 0 mm 4 mps 756 mmHg 89%

    25 August, Friday

    Time Temperature Precipitation Wind Pressure Humidity
    00:00 +26°C° 0 mm 3 mps 755 mmHg 89%
    01:00 +26°C° 0 mm 3 mps 755 mmHg 90%
    02:00 +26°C° 0 mm 3 mps 754 mmHg 90%
    03:00 +26°C° 0 mm 3 mps 754 mmHg 91%
    04:00 +26°C° 0 mm 4 mps 754 mmHg 92%
    05:00 +26°C° 0 mm 4 mps 754 mmHg 93%
    06:00 +26°C° 0 mm 4 mps 755 mmHg 88%
    07:00 +27°C° 0 mm 4 mps 755 mmHg 83%
    08:00 +28°C° 0 mm 4 mps 756 mmHg 79%
    09:00 +30°C° 0 mm 4 mps 756 mmHg 69%
    10:00 +32°C° 0 mm 4 mps 756 mmHg 59%
    11:00 +34°C° 0 mm 4 mps 755 mmHg 50%
    12:00 +34°C° 0 mm 5 mps 755 mmHg 49%
    13:00 +34°C° 0 mm 5 mps 754 mmHg 49%
    14:00 +35°C° 0 mm 5 mps 753 mmHg 49%
    15:00 +34°C° 0 mm 5 mps 753 mmHg 56%
    16:00 +33°C° 0 mm 5 mps 753 mmHg 63%
    17:00 +30°C° 0 mm 5 mps 753 mmHg 70%
    18:00 +29°C° 0 mm 5 mps 754 mmHg 76%
    19:00 +28°C° 0 mm 5 mps 754 mmHg 81%
    20:00 +27°C° 0 mm 4 mps 755 mmHg 87%
    21:00 +27°C° 0 mm 4 mps 755 mmHg 87%
    22:00 +27°C° 0 mm 4 mps 755 mmHg 88%
    23:00 +27°C° 0 mm 4 mps 755 mmHg 89%
    Show more